Yakima, WA
on Wednesday, February 13, 2013

Wednesday
Previous Day Next Day
Daily Summary
 ActualAverageRecord
Temperature
Mean Temperature °F 36°F  
Max Temperature 59°F 46°F 63°F (1971)
Min Temperature 32°F 26°F -2°F (1949)
Degree Days
Heating Degree Days 19 29  
Month to date heating degree days 316 394  
Since 1 July heating degree days 3585 4112  
Cooling Degree Days 0 0  
Month to date cooling degree days 0 0  
Year to date cooling degree days 0 0  
Moisture
Dew Point 30°F   
Average Humidity 59    
Maximum Humidity 82    
Minimum Humidity 35    
Precipitation
Precipitation 0.00 in 0.03 in 0.21 in (1962)
Month to date precipitation T 0.38  
Year to date precipitation 0.10 1.52  
Snow
Snow 0.00 in 0.10 in 3.10 in (1980)
Month to date snowfall 0.0 1.4  
Year to date snowfall 1.1 6.7  
Since 1 July snowfall 15.3 19.7  
Snow Depth 0.00 in   
Wind
Wind Speed 6 mph   
Max Wind Speed 24 mph   
Max Gust Speed 28 mph   
Visibility 10 miles   
Events     

Key: T is trace of precipitation, MM is missing value
Source: NWS Daily Summary
Time(PST)TemperatureDew PointHumidity Pressure Visibility Wind DirectionWind SpeedGust SpeedPrecipitationEvents Conditions
12:33 AM 48.2°F 33.8°F 58% 30.20 in 10.0 miles Variable 6.9 mph - N/A   Clear
12:53 AM 43.0°F 33.1°F 68% 30.22 in 10.0 miles Calm Calm - N/A   Clear
1:53 AM 39.0°F 32.0°F 76% 30.22 in 10.0 miles NNE 5.8 mph - N/A   Clear
2:53 AM 41.0°F 32.0°F 70% 30.22 in 10.0 miles WNW 6.9 mph - N/A   Clear
3:53 AM 36.0°F 30.0°F 79% 30.22 in 10.0 miles Variable 4.6 mph - N/A   Clear
4:53 AM 33.1°F 28.0°F 82% 30.23 in 10.0 miles Calm Calm - N/A   Clear
5:53 AM 35.6°F 30.2°F 81% 30.22 in 10.0 miles East 5.8 mph - N/A   Clear
6:53 AM 34.0°F 28.9°F 82% 30.27 in 10.0 miles NNE 3.5 mph - N/A   Clear
7:53 AM 34.0°F 28.9°F 82% 30.29 in 10.0 miles Calm Calm - N/A   Clear
8:53 AM 39.9°F 33.1°F 77% 30.29 in 10.0 miles ENE 4.6 mph - N/A   Clear
9:53 AM 46.9°F 34.0°F 61% 30.30 in 10.0 miles Calm Calm - N/A   Clear
10:53 AM 48.0°F 34.0°F 58% 30.30 in 10.0 miles NE 4.6 mph - N/A   Clear
11:53 AM 48.9°F 35.1°F 59% 30.30 in 10.0 miles East 3.5 mph - N/A   Clear
12:53 PM 55.9°F 30.9°F 39% 30.27 in 10.0 miles West 17.3 mph 23.0 mph N/A   Clear
1:53 PM 57.0°F 30.0°F 36% 30.27 in 10.0 miles WNW 16.1 mph - N/A   Clear
2:53 PM 57.9°F 30.0°F 35% 30.28 in 10.0 miles West 18.4 mph 25.3 mph N/A   Scattered Clouds
3:53 PM 55.0°F 28.9°F 37% 30.29 in 10.0 miles WNW 19.6 mph - N/A   Mostly Cloudy
4:53 PM 53.1°F 28.9°F 40% 30.31 in 10.0 miles West 15.0 mph - N/A   Clear
5:53 PM 50.0°F 28.9°F 44% 30.34 in 10.0 miles NW 10.4 mph - N/A   Scattered Clouds
6:53 PM 46.9°F 28.9°F 50% 30.38 in 10.0 miles Calm Calm - N/A   Clear
7:53 PM 41.0°F 28.0°F 60% 30.40 in 10.0 miles West 4.6 mph - N/A   Clear
8:53 PM 37.9°F 28.0°F 68% 30.40 in 10.0 miles WSW 4.6 mph - N/A   Clear
9:53 PM 37.9°F 28.0°F 68% 30.39 in 10.0 miles WNW 4.6 mph - N/A   Clear
10:53 PM 35.1°F 26.1°F 70% 30.41 in 10.0 miles Calm Calm - N/A   Clear
11:53 PM 36.0°F 27.0°F 70% 30.42 in 10.0 miles SW 4.6 mph - N/A   Clear
Moon Phase
Feb. 13 Feb. 17 Feb. 25 Mar. 04 Mar. 11
Sunrise:07:08 AM (PST) Moon Rise:08:23 AM (PST)2/13
Sunset:05:24 PM (PST) Moon Set:09:52 PM (PST)2/13

Copyright © 2014 The Weather Underground, Inc.